Location: Newark
(7.0858°N, 171.3717°E)
Time: 01:51:53
(UTC+00:00)

Transit 4A - Pass Details

Date: 27 November 2020
Orbit: 864 x 980 km, 66.8° (Epoch: 20 January)

Event Time Altitude Azimuth Distance (km) Brightness Sun altitude
Rises 19:23:29 0° 199° (SSW) 3,534 11.0 11.5°
Reaches altitude 10° 19:25:57 10° 199° (SSW) 2,609 10.4 12.0°
Maximum altitude 19:32:03 88° 109° (ESE) 943 8.3 13.4°
Drops below altitude 10° 19:38:19 10° 21° (NNE) 2,683 10.3 14.8°
Sets 19:40:54 0° 21° (NNE) 3,641 11.0 15.4°
